Location: Dompnac
(44.5644°N, 4.1026°E)
Time: 09:22:49
(UTC+00:00)

Cosmos 2026 Rocket - Pass Details

Date: 24 January 2021
Orbit: 940 x 1000 km, 82.9° (Epoch: 26 February)

Event Time Altitude Azimuth Distance (km) Brightness Sun altitude
Rises 05:50:04 0° 350° (N) 3,713 6.8 -14.3°
Reaches altitude 10° 05:52:36 10° 349° (NNW) 2,767 6.1 -13.8°
Maximum altitude 05:58:56 75° 265° (W) 1,037 4.0 -12.7°
Drops below altitude 10° 06:05:16 10° 182° (S) 2,762 6.6 -11.7°
Sets 06:07:48 0° 180° (S) 3,707 7.2 -11.2°
